• En España
  • Lista de países
  • Para 7 días
  • Temperatura del agua
  • Mapa Satelital
  • El tiempo en el mapa
  • Informadores
  • user-avatar
    Iniciar sesión

    Tiempo cada hora Ondjiwa

    Hoy, 26 Febrero, Lunes

    Tiempo Temperatura Precipitaciones Viento Presión Humedad
    00:00 +24°C° 0 mm 3 mps 666 mmHg 40%
    01:00 +22°C° 0 mm 3 mps 666 mmHg 40%
    02:00 +21°C° 0 mm 2 mps 666 mmHg 40%
    03:00 +20°C° 0 mm 2 mps 665 mmHg 40%
    04:00 +20°C° 0 mm 2 mps 665 mmHg 40%
    05:00 +21°C° 0 mm 1 mps 666 mmHg 40%
    06:00 +21°C° 0 mm 1 mps 666 mmHg 41%
    07:00 +22°C° 0 mm 1 mps 666 mmHg 41%
    08:00 +24°C° 0 mm 1 mps 667 mmHg 34%
    09:00 +27°C° 0 mm 2 mps 668 mmHg 27%
    10:00 +30°C° 0 mm 3 mps 668 mmHg 20%
    11:00 +31°C° 0 mm 3 mps 668 mmHg 19%
    12:00 +34°C° 0 mm 3 mps 668 mmHg 17%
    13:00 +35°C° 0 mm 3 mps 667 mmHg 16%
    14:00 +35°C° 0 mm 3 mps 667 mmHg 16%
    15:00 +35°C° 0 mm 3 mps 666 mmHg 16%
    16:00 +36°C° 0 mm 2 mps 665 mmHg 16%
    17:00 +34°C° 0 mm 2 mps 665 mmHg 19%
    18:00 +31°C° 0 mm 2 mps 665 mmHg 21%
    19:00 +29°C° 0 mm 2 mps 665 mmHg 24%
    20:00 +28°C° 0 mm 2 mps 665 mmHg 25%
    21:00 +27°C° 0 mm 2 mps 665 mmHg 25%
    22:00 +26°C° 0 mm 1 mps 666 mmHg 26%
    23:00 +25°C° 0 mm 2 mps 666 mmHg 30%

    Mañana, 27 Febrero, Martes

    Tiempo Temperatura Precipitaciones Viento Presión Humedad
    00:00 +24°C° 0 mm 2 mps 666 mmHg 33%
    01:00 +22°C° 0 mm 3 mps 666 mmHg 37%
    02:00 +21°C° 0 mm 3 mps 665 mmHg 38%
    03:00 +21°C° 0 mm 2 mps 665 mmHg 39%
    04:00 +20°C° 0 mm 2 mps 665 mmHg 40%
    05:00 +20°C° 0 mm 2 mps 665 mmHg 41%
    06:00 +20°C° 0 mm 2 mps 666 mmHg 42%
    07:00 +22°C° 0 mm 1 mps 666 mmHg 43%
    08:00 +25°C° 0 mm 2 mps 667 mmHg 36%
    09:00 +27°C° 0 mm 2 mps 668 mmHg 28%
    10:00 +30°C° 0 mm 3 mps 668 mmHg 21%
    11:00 +33°C° 0 mm 3 mps 668 mmHg 19%
    12:00 +34°C° 0 mm 3 mps 667 mmHg 17%
    13:00 +36°C° 0 mm 3 mps 667 mmHg 15%
    14:00 +36°C° 0 mm 3 mps 666 mmHg 15%
    15:00 +36°C° 0 mm 3 mps 666 mmHg 15%
    16:00 +36°C° 0 mm 3 mps 665 mmHg 14%
    17:00 +34°C° 0 mm 2 mps 665 mmHg 17%
    18:00 +31°C° 0 mm 2 mps 665 mmHg 20%
    19:00 +28°C° 0 mm 2 mps 664 mmHg 22%
    20:00 +28°C° 0 mm 2 mps 665 mmHg 22%
    21:00 +27°C° 0 mm 2 mps 666 mmHg 23%
    22:00 +26°C° 0 mm 2 mps 666 mmHg 23%
    23:00 +26°C° 0 mm 2 mps 666 mmHg 25%

    Pasado mañana, 28 Febrero, Miércoles

    Tiempo Temperatura Precipitaciones Viento Presión Humedad
    00:00 +25°C° 0 mm 3 mps 666 mmHg 27%
    01:00 +23°C° 0 mm 4 mps 666 mmHg 30%
    02:00 +22°C° 0 mm 3 mps 665 mmHg 32%
    03:00 +22°C° 0 mm 3 mps 665 mmHg 35%
    04:00 +21°C° 0 mm 2 mps 665 mmHg 37%
    05:00 +21°C° 0 mm 2 mps 665 mmHg 38%
    06:00 +21°C° 0 mm 3 mps 666 mmHg 39%
    07:00 +22°C° 0 mm 3 mps 666 mmHg 40%
    08:00 +25°C° 0 mm 2 mps 667 mmHg 38%
    09:00 +28°C° 0 mm 2 mps 668 mmHg 36%
    10:00 +31°C° 0 mm 2 mps 668 mmHg 33%
    11:00 +32°C° 0 mm 2 mps 668 mmHg 30%
    12:00 +34°C° 0 mm 3 mps 667 mmHg 27%
    13:00 +36°C° 0 mm 3 mps 667 mmHg 24%
    14:00 +36°C° 0 mm 3 mps 666 mmHg 24%
    15:00 +35°C° 0 mm 4 mps 666 mmHg 24%
    16:00 +35°C° 0 mm 4 mps 665 mmHg 24%
    17:00 +34°C° 0 mm 3 mps 665 mmHg 26%
    18:00 +31°C° 0 mm 3 mps 665 mmHg 28%
    19:00 +29°C° 0 mm 3 mps 665 mmHg 30%
    20:00 +28°C° 0 mm 3 mps 665 mmHg 29%
    21:00 +28°C° 0 mm 3 mps 666 mmHg 28%
    22:00 +27°C° 0 mm 3 mps 667 mmHg 28%
    23:00 +26°C° 0 mm 4 mps 666 mmHg 30%

    1 Marzo, Jueves

    Tiempo Temperatura Precipitaciones Viento Presión Humedad
    00:00 +26°C° 0 mm 4 mps 666 mmHg 33%
    01:00 +25°C° 0 mm 4 mps 666 mmHg 35%
    02:00 +25°C° 0 mm 4 mps 666 mmHg 36%
    03:00 +23°C° 0 mm 4 mps 666 mmHg 37%
    04:00 +22°C° 0 mm 4 mps 666 mmHg 37%
    05:00 +22°C° 0 mm 4 mps 666 mmHg 38%
    06:00 +22°C° 0 mm 3 mps 666 mmHg 38%
    07:00 +22°C° 0 mm 3 mps 667 mmHg 39%
    08:00 +25°C° 0 mm 3 mps 667 mmHg 33%
    09:00 +28°C° 0 mm 4 mps 668 mmHg 27%
    10:00 +30°C° 0 mm 4 mps 668 mmHg 22%
    11:00 +32°C° 0 mm 5 mps 668 mmHg 20%
    12:00 +34°C° 0 mm 5 mps 667 mmHg 19%
    13:00 +35°C° 0 mm 5 mps 666 mmHg 18%
    14:00 +36°C° 0 mm 5 mps 666 mmHg 18%
    15:00 +36°C° 0 mm 5 mps 665 mmHg 18%
    16:00 +36°C° 0 mm 5 mps 664 mmHg 19%
    17:00 +34°C° 0 mm 4 mps 664 mmHg 21%
    18:00 +31°C° 0 mm 3 mps 664 mmHg 24%
    19:00 +29°C° 0 mm 2 mps 664 mmHg 27%
    20:00 +29°C° 0 mm 3 mps 664 mmHg 27%
    21:00 +29°C° 0 mm 4 mps 665 mmHg 26%
    22:00 +28°C° 0 mm 5 mps 666 mmHg 26%
    23:00 +27°C° 0 mm 5 mps 665 mmHg 30%

    2 Marzo, Viernes

    Tiempo Temperatura Precipitaciones Viento Presión Humedad
    00:00 +26°C° 0 mm 5 mps 665 mmHg 34%
    01:00 +25°C° 0 mm 4 mps 665 mmHg 38%
    02:00 +23°C° 0,1 mm 4 mps 665 mmHg 41%
    03:00 +24°C° 0,1 mm 3 mps 665 mmHg 43%
    04:00 +22°C° 0,1 mm 3 mps 664 mmHg 46%
    05:00 +22°C° 0 mm 3 mps 665 mmHg 45%
    06:00 +22°C° 0 mm 3 mps 665 mmHg 44%
    07:00 +22°C° 0 mm 3 mps 666 mmHg 43%
    08:00 +25°C° 0 mm 3 mps 666 mmHg 39%
    09:00 +27°C° 0 mm 3 mps 666 mmHg 34%
    10:00 +28°C° 0 mm 4 mps 666 mmHg 30%
    11:00 +30°C° 0 mm 4 mps 666 mmHg 29%
    12:00 +33°C° 0 mm 4 mps 666 mmHg 28%
    13:00 +34°C° 0 mm 4 mps 665 mmHg 27%
    14:00 +35°C° 0 mm 4 mps 664 mmHg 27%
    15:00 +35°C° 0 mm 4 mps 664 mmHg 26%
    16:00 +35°C° 0 mm 4 mps 663 mmHg 26%
    17:00 +33°C° 0 mm 4 mps 663 mmHg 30%
    18:00 +31°C° 0 mm 3 mps 663 mmHg 33%
    19:00 +29°C° 0 mm 2 mps 663 mmHg 36%
    20:00 +28°C° 0,1 mm 3 mps 664 mmHg 38%
    21:00 +27°C° 0,1 mm 3 mps 664 mmHg 40%
    22:00 +27°C° 0,1 mm 4 mps 665 mmHg 42%
    23:00 +26°C° 0,3 mm 4 mps 665 mmHg 45%

    3 Marzo, Sábado

    Tiempo Temperatura Precipitaciones Viento Presión Humedad
    00:00 +25°C° 0,3 mm 4 mps 665 mmHg 48%
    01:00 +25°C° 0,3 mm 4 mps 665 mmHg 51%
    02:00 +23°C° 0,5 mm 4 mps 664 mmHg 58%
    03:00 +22°C° 0,5 mm 3 mps 664 mmHg 65%
    04:00 +21°C° 0,5 mm 3 mps 664 mmHg 72%
    05:00 +21°C° 0,7 mm 3 mps 664 mmHg 74%
    06:00 +21°C° 0,7 mm 3 mps 665 mmHg 76%
    07:00 +21°C° 0,7 mm 3 mps 665 mmHg 78%
    08:00 +24°C° 0,1 mm 3 mps 666 mmHg 71%
    09:00 +26°C° 0,1 mm 3 mps 666 mmHg 63%
    10:00 +28°C° 0,1 mm 3 mps 666 mmHg 56%
    11:00 +29°C° 0 mm 3 mps 666 mmHg 51%
    12:00 +30°C° 0 mm 3 mps 665 mmHg 46%
    13:00 +31°C° 0 mm 3 mps 664 mmHg 41%
    14:00 +33°C° 0 mm 4 mps 664 mmHg 39%
    15:00 +33°C° 0 mm 4 mps 664 mmHg 37%
    16:00 +33°C° 0 mm 4 mps 663 mmHg 34%
    17:00 +31°C° 0 mm 3 mps 663 mmHg 38%
    18:00 +29°C° 0 mm 2 mps 663 mmHg 42%
    19:00 +28°C° 0 mm 1 mps 663 mmHg 46%
    20:00 +27°C° 0 mm 2 mps 664 mmHg 48%
    21:00 +27°C° 0 mm 2 mps 664 mmHg 50%
    22:00 +26°C° 0 mm 2 mps 665 mmHg 53%
    23:00 +25°C° 0,1 mm 2 mps 665 mmHg 56%
    Mostrar más